GW4153 Weather Reports


Display with metric or nautical units.
time (UTC)temp
F
wind
direction
speed
MPH
gust
MPH
rain 1hr
in
rain 24hr
in
rain mn
in
humidity
%
barometer
mb
20260507103506 63 249 5.0 7.0 0.00 0.00 0.00 84 1019.7
20260507103015 63 244 5.0 8.0 0.00 0.00 0.00 84 1019.7
20260507102506 63 229 5.0 8.0 0.00 0.00 0.00 84 1019.7
20260507102010 63 234 5.0 8.0 0.00 0.00 0.00 84 1019.7
20260507101516 63 246 5.0 8.0 0.00 0.00 0.00 84 1019.7
20260507101008 63 256 5.0 8.0 0.00 0.00 0.00 84 1019.8
20260507100506 63 248 5.0 8.0 0.00 0.00 0.00 84 1019.9
20260507100026 63 240 5.0 8.0 0.00 0.00 0.00 85 1019.9
20260507095509 64 243 5.0 8.0 0.00 0.00 0.00 85 1019.9
20260507095007 64 233 4.0 7.0 0.00 0.00 0.00 85 1019.9
20260507094527 64 240 5.0 7.0 0.00 0.00 0.00 85 1019.9
20260507094002 64 240 4.0 7.0 0.00 0.00 0.00 85 1019.9
20260507093516 64 236 4.0 7.0 0.00 0.00 0.00 85 1020.0
20260507093022 64 251 4.0 7.0 0.00 0.00 0.00 85 1020.0
20260507092504 64 248 4.0 7.0 0.00 0.00 0.00 86 1020.0
20260507092006 64 252 4.0 7.0 0.00 0.00 0.00 85 1020.0
20260507091531 64 234 4.0 7.0 0.00 0.00 0.00 85 1020.1
20260507091011 64 245 4.0 7.0 0.00 0.00 0.00 84 1020.1
20260507090510 63 257 4.0 7.0 0.00 0.00 0.00 85 1020.0
20260507090019 63 257 3.0 6.0 0.00 0.00 0.00 85 1020.1
20260507085506 63 243 4.0 7.0 0.00 0.00 0.00 84 1020.1
20260507085010 63 250 4.0 7.0 0.00 0.00 0.00 83 1020.1
20260507084529 63 249 4.0 8.0 0.00 0.00 0.00 82 1020.1
20260507084007 63 250 5.0 8.0 0.00 0.00 0.00 82 1020.1
20260507083511 63 240 4.0 8.0 0.00 0.00 0.00 82 1020.2
20260507083029 63 250 5.0 8.0 0.00 0.00 0.00 83 1020.1
20260507082509 63 242 4.0 8.0 0.00 0.00 0.00 84 1020.1
20260507082007 63 250 4.0 8.0 0.00 0.00 0.00 85 1020.1
20260507081510 64 238 5.0 8.0 0.00 0.00 0.00 86 1020.2
20260507081004 64 238 5.0 8.0 0.00 0.00 0.00 86 1020.1
20260507080504 64 252 5.0 8.0 0.00 0.00 0.00 86 1020.1
20260507080018 64 250 4.0 7.0 0.00 0.00 0.00 85 1020.1
20260507075508 64 254 4.0 7.0 0.00 0.00 0.00 85 1020.2
20260507075009 64 244 5.0 7.0 0.00 0.00 0.00 84 1020.2
20260507074520 64 242 5.0 7.0 0.00 0.00 0.00 84 1020.1
20260507074007 64 246 4.0 7.0 0.00 0.00 0.00 84 1020.1
20260507073509 64 239 4.0 7.0 0.00 0.00 0.00 85 1020.0
20260507073028 64 254 3.0 5.0 0.00 0.00 0.00 86 1019.9
20260507072508 65 246 3.0 4.0 0.00 0.00 0.00 86 1019.9
20260507072010 65 242 3.0 4.0 0.00 0.00 0.00 85 1019.8
20260507071528 65 240 3.0 4.0 0.00 0.00 0.00 85 1019.8
20260507071005 66 247 3.0 4.0 0.00 0.00 0.00 85 1019.7
20260507070507 66 243 2.0 4.0 0.00 0.00 0.00 84 1019.6
20260507070013 66 252 1.0 3.0 0.00 0.00 0.00 84 1019.5
20260507065504 66 252 1.0 3.0 0.00 0.00 0.00 82 1019.3
20260507065009 65 252 1.0 3.0 0.00 0.00 0.00 82 1019.3
20260507064503 65 231 1.0 2.0 0.00 0.00 0.00 86 1019.1
20260507064003 66 231 0.0 4.0 0.00 0.00 0.00 88 1019.0
20260507063502 66 231 2.0 4.0 0.00 0.00 0.00 88 1018.9
20260507063008 66 250 1.0 5.0 0.00 0.00 0.00 89 1019.0
20260507062505 66 240 3.0 5.0 0.00 0.00 0.00 88 1018.9
20260507062002 66 227 2.0 4.0 0.00 0.00 0.00 88 1018.7
20260507061506 67 225 1.0 4.0 0.00 0.00 0.00 88 1018.8
20260507061002 67 211 2.0 4.0 0.00 0.00 0.00 88 1018.8
20260507060502 67 221 1.0 4.0 0.00 0.00 0.00 88 1018.8
20260507060013 68 221 2.0 4.0 0.00 0.00 0.00 89 1018.7
20260507055506 68 198 1.0 2.0 0.00 0.00 0.00 89 1018.8
20260507055007 69 172 0.0 2.0 0.00 0.00 0.00 89 1018.7
20260507054514 69 172 0.0 2.0 0.00 0.00 0.00 89 1018.7
20260507054005 69 172 0.0 2.0 0.00 0.00 0.00 89 1018.5
20260507053513 69 172 0.0 1.0 0.00 0.00 0.00 89 1018.5
20260507053021 69 172 0.0 1.0 0.00 0.00 0.00 89 1018.4
20260507052503 69 172 0.0 2.0 0.00 0.00 0.00 89 1018.4
20260507052004 69 172 1.0 2.0 0.00 0.00 0.00 89 1018.3
20260507051505 70 172 0.0 1.0 0.00 0.00 0.00 88 1018.2
20260507051002 70 172 0.0 2.0 0.00 0.00 0.00 88 1018.2
20260507050502 70 172 0.0 2.0 0.00 0.00 0.00 87 1018.1
20260507050010 70 172 0.0 2.0 0.00 0.00 0.00 87 1018.1
20260507045503 70 172 0.0 2.0 0.00 0.00 0.00 87 1018.0
20260507045002 71 172 1.0 2.0 0.00 0.00 0.00 87 1018.0
20260507044512 71 172 0.0 2.0 0.00 0.00 0.00 87 1018.0
20260507044007 71 95 1.0 2.0 0.00 0.00 0.00 87 1018.0
20260507043506 71 95 0.0 2.0 0.00 0.00 0.00 87 1017.9
20260507043015 71 95 0.0 3.0 0.00 0.00 0.00 87 1017.9
20260507042506 71 95 1.0 3.0 0.00 0.00 0.00 87 1017.8
20260507042010 72 129 2.0 3.0 0.00 0.00 0.00 86 1017.8
20260507041520 72 112 1.0 4.0 0.00 0.00 0.00 86 1017.8
20260507041009 72 106 2.0 4.0 0.00 0.00 0.00 86 1017.7
20260507040503 72 103 1.0 6.0 0.00 0.00 0.00 86 1017.6
20260507040004 72 115 3.0 6.0 0.00 0.00 0.00 85 1017.6
20260507035502 72 137 3.0 6.0 0.00 0.00 0.00 85 1017.6
20260507035003 73 127 2.0 6.0 0.00 0.00 0.00 85 1017.6
20260507034520 73 81 3.0 6.0 0.00 0.00 0.00 85 1017.5
20260507034004 73 88 3.0 6.0 0.00 0.00 0.00 85 1017.5
20260507033514 73 98 2.0 6.0 0.00 0.00 0.00 85 1017.4
20260507033013 73 76 2.0 7.0 0.00 0.00 0.00 85 1017.3
20260507032507 73 120 3.0 7.0 0.00 0.00 0.00 85 1017.3
20260507032013 73 61 1.0 8.0 0.00 0.00 0.00 85 1017.4
20260507031516 73 96 4.0 8.0 0.00 0.00 0.00 85 1017.4
20260507031006 73 138 2.0 7.0 0.00 0.00 0.00 85 1017.3
20260507030512 73 106 3.0 8.0 0.00 0.00 0.00 85 1017.3
20260507030023 73 72 3.0 8.0 0.00 0.00 0.00 85 1017.2
20260507025506 73 62 2.0 6.0 0.00 0.00 0.00 86 1017.2
20260507025014 73 108 3.0 6.0 0.00 0.00 0.00 85 1017.1
20260507024504 73 78 3.0 7.0 0.00 0.00 0.00 85 1017.0
20260507024004 73 109 3.0 7.0 0.00 0.00 0.00 85 1017.0
20260507023502 73 75 1.0 6.0 0.00 0.00 0.00 86 1017.1
20260507023008 73 109 3.0 7.0 0.00 0.00 0.00 85 1017.1
20260507022504 73 84 3.0 7.0 0.00 0.00 0.00 85 1017.0
20260507022006 73 85 4.0 7.0 0.00 0.00 0.00 85 1017.1
20260507021512 73 77 3.0 8.0 0.00 0.00 0.00 84 1017.0
20260507021009 73 96 4.0 8.0 0.00 0.00 0.00 84 1017.1
20260507020507 74 96 3.0 7.0 0.00 0.00 0.00 84 1017.0
20260507020029 74 86 4.0 7.0 0.00 0.00 0.00 83 1017.0
20260507015506 74 81 4.0 8.0 0.00 0.00 0.00 83 1017.0
20260507015006 75 98 4.0 8.0 0.00 0.00 0.00 83 1017.0
20260507014522 75 93 4.0 7.0 0.00 0.00 0.00 82 1017.0
20260507014006 75 82 3.0 5.0 0.00 0.00 0.00 81 1016.9
20260507013511 75 115 0.0 5.0 0.00 0.00 0.00 80 1016.9
20260507013044 75 68 2.0 7.0 0.00 0.00 0.00 81 1016.8
20260507012502 75 69 1.0 7.0 0.00 0.00 0.00 78 1016.7
20260507012004 76 93 3.0 6.0 0.00 0.00 0.00 79 1016.9
20260507011509 76 138 1.0 6.0 0.00 0.00 0.00 78 1017.0
20260507011003 76 47 2.0 5.0 0.00 0.00 0.00 79 1016.9
20260507010504 76 58 3.0 6.0 0.00 0.00 0.00 80 1017.1
20260507010014 76 74 2.0 6.0 0.00 0.00 0.00 79 1017.0
20260507005506 76 98 2.0 8.0 0.00 0.00 0.00 78 1017.0
20260507005006 77 79 4.0 8.0 0.00 0.00 0.00 78 1017.0
20260507004521 77 105 3.0 8.0 0.00 0.00 0.00 73 1017.1
20260507004007 77 112 4.0 8.0 0.00 0.00 0.00 68 1017.1
20260507003515 78 88 4.0 11.0 0.00 0.00 0.00 69 1017.2
20260507003023 79 85 4.0 11.0 0.00 0.00 0.00 74 1017.1
20260507002507 79 50 4.0 8.0 0.00 0.00 0.00 67 1017.1
20260507002012 79 29 2.0 8.0 0.00 0.00 0.00 53 1017.1
20260507001531 79 58 3.0 6.0 0.00 0.00 0.00 61 1017.2
20260507001012 78 19 0.0 5.0 0.00 0.00 0.00 58 1017.2
20260507000504 78 281 0.0 5.0 0.00 0.00 0.00 61 1017.3
20260507000010 78 346 1.0 6.0 0.00 0.00 0.00 64 1017.2
20260506235505 78 5 1.0 6.0 0.00 0.00 0.00 68 1017.3
20260506235004 78 51 4.0 6.0 0.00 0.00 0.00 75 1017.4
20260506234522 78 119 2.0 8.0 0.00 0.00 0.00 75 1017.6
20260506234007 78 59 3.0 8.0 0.00 0.00 0.00 74 1017.6
20260506233507 78 44 3.0 8.0 0.00 0.00 0.00 74 1017.7
20260506233022 77 91 5.0 8.0 0.00 0.00 0.00 70 1017.7
20260506232506 77 71 0.0 7.0 0.00 0.00 0.00 72 1017.8
20260506232008 77 67 2.0 6.0 0.00 0.00 0.00 73 1017.9
20260506231528 77 120 2.0 6.0 0.00 0.00 0.00 74 1017.9
20260506231008 77 90 2.0 8.0 0.00 0.00 0.00 79 1017.9
20260506230511 76 88 2.0 8.0 0.00 0.00 0.00 77 1018.0
20260506230028 77 100 5.0 8.0 0.00 0.00 0.00 79 1017.9
20260506225511 76 67 2.0 8.0 0.00 0.00 0.00 77 1017.8
20260506225011 76 116 5.0 8.0 0.00 0.00 0.00 76 1017.9
20260506224511 76 84 4.0 8.0 0.00 0.00 0.00 78 1018.0
20260506224006 76 95 3.0 7.0 0.00 0.00 0.00 77 1017.9
20260506223505 76 90 3.0 9.0 0.00 0.00 0.00 74 1018.0
20260506223016 76 119 5.0 9.0 0.00 0.00 0.00 78 1018.0
20260506222507 76 134 4.0 9.0 0.00 0.00 0.00 79 1018.0
20260506222013 75 109 3.0 9.0 0.00 0.00 0.00 80 1018.2
20260506221503 75 92 2.0 10.0 0.00 0.00 0.00 81 1018.2
20260506221004 75 71 4.0 10.0 0.00 0.00 0.00 81 1018.2
20260506220504 75 110 4.0 10.0 0.00 0.00 0.00 81 1018.4
20260506220007 75 80 4.0 10.0 0.00 0.00 0.00 81 1018.5
20260506215503 75 75 3.0 10.0 0.00 0.00 0.00 80 1018.5
20260506215003 75 123 5.0 10.0 0.00 0.00 0.00 80 1018.7
20260506214510 75 51 5.0 11.0 0.00 0.00 0.00 80 1018.7
20260506214004 75 115 6.0 11.0 0.00 0.00 0.00 79 1018.8
20260506213506 75 128 6.0 10.0 0.00 0.00 0.00 82 1018.7
20260506213013 75 94 5.0 9.0 0.00 0.00 0.00 80 1018.7
20260506212506 75 82 4.0 10.0 0.00 0.00 0.00 82 1018.6
20260506212007 75 82 6.0 10.0 0.00 0.00 0.00 82 1018.6
20260506211524 75 84 6.0 9.0 0.00 0.00 0.00 82 1018.7
20260506211003 75 55 4.0 9.0 0.00 0.00 0.00 82 1018.7
20260506210503 75 99 5.0 10.0 0.00 0.00 0.00 82 1018.8
20260506210010 75 138 6.0 10.0 0.00 0.00 0.00 80 1018.7
20260506205504 75 87 5.0 10.0 0.00 0.00 0.00 80 1018.8
20260506205001 76 115 5.0 10.0 0.00 0.00 0.00 81 1018.8
20260506204506 76 88 4.0 11.0 0.00 0.00 0.00 80 1018.8
20260506204002 76 92 5.0 11.0 0.00 0.00 0.00 77 1018.8
20260506203505 76 56 4.0 8.0 0.00 0.00 0.00 80 1018.9
20260506203007 76 16 3.0 9.0 0.00 0.00 0.00 80 1018.8
20260506202509 76 80 4.0 9.0 0.00 0.00 0.00 81 1018.9
20260506202007 76 63 3.0 8.0 0.00 0.00 0.00 80 1018.8
20260506201516 76 77 3.0 9.0 0.00 0.00 0.00 78 1018.7
20260506201011 76 52 4.0 9.0 0.00 0.00 0.00 78 1018.8
20260506200508 76 74 4.0 7.0 0.00 0.00 0.00 77 1018.9
20260506200034 75 80 3.0 6.0 0.00 0.00 0.00 78 1018.8
20260506195510 75 31 3.0 6.0 0.00 0.00 0.00 77 1018.7
20260506195003 75 10 1.0 7.0 0.00 0.00 0.00 77 1018.7
20260506194503 75 65 2.0 7.0 0.00 0.00 0.00 80 1018.8
20260506194006 75 31 3.0 6.0 0.00 0.00 0.00 81 1018.8
20260506193502 75 326 2.0 7.0 0.00 0.00 0.00 79 1018.8
20260506193007 76 352 3.0 9.0 0.00 0.00 0.00 80 1018.8
20260506192502 76 351 3.0 9.0 0.00 0.00 0.00 79 1018.8
20260506192006 76 76 3.0 8.0 0.00 0.00 0.00 78 1018.7
20260506191510 76 41 3.0 7.0 0.00 0.00 0.00 76 1018.7
20260506191007 76 62 3.0 8.0 0.00 0.00 0.00 77 1018.6
20260506190507 76 59 3.0 8.0 0.00 0.00 0.00 72 1018.6
20260506190019 76 90 3.0 8.0 0.00 0.00 0.00 72 1018.6
20260506185511 76 113 5.0 10.0 0.00 0.00 0.00 72 1018.6
20260506185006 76 115 3.0 10.0 0.00 0.00 0.00 66 1018.6
20260506184521 76 137 3.0 9.0 0.00 0.00 0.00 68 1018.6
20260506184010 75 123 3.0 9.0 0.00 0.00 0.00 69 1018.7
20260506183508 75 143 3.0 9.0 0.00 0.00 0.00 69 1018.6
20260506183005 75 141 4.0 8.0 0.00 0.00 0.00 68 1018.5
20260506182503 75 146 3.0 8.0 0.00 0.00 0.00 69 1018.4
20260506182005 75 165 3.0 5.0 0.00 0.00 0.00 72 1018.3
20260506181512 74 152 1.0 5.0 0.00 0.00 0.00 73 1018.3
20260506181006 74 187 1.0 4.0 0.00 0.00 0.00 77 1018.3
20260506180506 73 155 0.0 1.0 0.00 0.00 0.00 74 1018.2
20260506180017 73 155 0.0 2.0 0.00 0.00 0.00 75 1018.2
20260506175507 72 155 0.0 3.0 0.00 0.00 0.00 73 1018.3
20260506175007 72 155 1.0 5.0 0.00 0.00 0.00 74 1018.3
20260506174518 72 105 2.0 5.0 0.00 0.00 0.00 76 1018.2
20260506174007 71 123 2.0 4.0 0.00 0.00 0.00 79 1018.1
20260506173506 71 226 0.0 4.0 0.00 0.00 0.00 79 1018.1
20260506173024 70 210 0.0 4.0 0.00 0.00 0.00 80 1018.0
20260506172509 70 222 1.0 5.0 0.00 0.00 0.00 79 1017.9
20260506172012 69 227 2.0 5.0 0.00 0.00 0.00 79 1017.8
20260506171527 69 227 2.0 7.0 0.00 0.00 0.00 80 1017.7
20260506171004 69 231 3.0 7.0 0.00 0.00 0.00 80 1017.6
20260506170503 68 229 2.0 7.0 0.00 0.00 0.00 80 1017.6
20260506170011 68 227 2.0 7.0 0.00 0.00 0.00 80 1017.6
20260506165506 67 232 4.0 8.0 0.00 0.00 0.00 80 1017.5
20260506165004 67 224 4.0 8.0 0.00 0.00 0.00 81 1017.5
20260506164515 66 221 4.0 9.0 0.00 0.00 0.00 81 1017.5
20260506164008 66 236 6.0 9.0 0.00 0.00 0.00 81 1017.5
20260506163507 66 219 6.0 9.0 0.00 0.00 0.00 81 1017.4
20260506163023 66 225 3.0 9.0 0.00 0.00 0.00 81 1017.3
20260506162508 65 232 5.0 9.0 0.00 0.00 0.00 81 1017.2
20260506162007 65 229 5.0 9.0 0.00 0.00 0.00 81 1017.1
20260506161524 65 248 6.0 9.0 0.00 0.00 0.00 81 1017.1
20260506161008 65 241 5.0 9.0 0.00 0.00 0.00 81 1017.0
20260506160510 65 234 5.0 9.0 0.00 0.00 0.00 81 1016.9
20260506160028 65 223 4.0 10.0 0.00 0.00 0.00 81 1016.9
20260506155514 65 230 5.0 10.0 0.00 0.00 0.00 81 1016.7
20260506155008 65 242 6.0 9.0 0.00 0.00 0.00 81 1016.6
20260506154509 65 234 5.0 10.0 0.00 0.00 0.00 81 1016.6
20260506154008 65 242 6.0 10.0 0.00 0.00 0.00 82 1016.6
20260506153512 65 230 6.0 9.0 0.00 0.00 0.00 82 1016.6
20260506153020 66 240 5.0 11.0 0.00 0.00 0.00 82 1016.6
20260506152505 66 239 6.0 11.0 0.00 0.00 0.00 82 1016.6
20260506152012 66 223 6.0 11.0 0.00 0.00 0.00 82 1016.6
20260506151519 66 225 6.0 11.0 0.00 0.00 0.00 83 1016.4
20260506151008 66 248 6.0 11.0 0.00 0.00 0.00 83 1016.4
20260506150509 66 232 6.0 11.0 0.00 0.00 0.00 83 1016.4
20260506150024 66 236 5.0 9.0 0.00 0.00 0.00 83 1016.3
20260506145510 66 213 4.0 9.0 0.00 0.00 0.00 84 1016.4
20260506145012 66 239 5.0 9.0 0.00 0.00 0.00 84 1016.3
20260506144531 66 217 4.0 9.0 0.00 0.00 0.00 85 1016.3
20260506144012 66 244 5.0 8.0 0.00 0.01 0.00 85 1016.3
20260506143516 66 203 4.0 8.0 0.00 0.01 0.00 85 1016.3
20260506143011 66 236 4.0 8.0 0.00 0.02 0.00 86 1016.4
20260506142505 66 239 4.0 6.0 0.00 0.02 0.00 85 1016.4
20260506142004 66 219 2.0 5.0 0.00 0.02 0.00 85 1016.4
20260506141517 66 210 2.0 7.0 0.00 0.02 0.00 85 1016.4
20260506141005 66 206 1.0 7.0 0.00 0.02 0.00 85 1016.4
20260506140512 67 129 2.0 6.0 0.00 0.03 0.00 85 1016.4
20260506140021 67 216 3.0 6.0 0.00 0.03 0.00 85 1016.5
20260506135509 67 220 4.0 7.0 0.00 0.03 0.00 85 1016.4
20260506135009 67 230 4.0 8.0 0.00 0.03 0.00 85 1016.4
20260506134526 67 227 4.0 8.0 0.00 0.03 0.00 85 1016.4
20260506134010 67 227 3.0 7.0 0.00 0.03 0.00 85 1016.5
20260506133512 67 229 3.0 7.0 0.00 0.03 0.00 85 1016.4
20260506133028 67 240 3.0 5.0 0.00 0.03 0.00 85 1016.5
20260506132512 67 233 3.0 5.0 0.00 0.03 0.00 85 1016.6
20260506132015 67 182 1.0 3.0 0.00 0.03 0.00 85 1016.7
20260506131517 67 202 0.0 2.0 0.00 0.03 0.00 85 1016.7
20260506131005 67 202 1.0 2.0 0.00 0.03 0.00 85 1016.8
20260506130511 67 202 0.0 1.0 0.00 0.03 0.00 85 1016.8
20260506130021 67 202 0.0 3.0 0.00 0.03 0.00 85 1016.9
20260506125503 67 202 1.0 5.0 0.00 0.03 0.00 84 1016.7
20260506125003 67 182 2.0 5.0 0.00 0.03 0.00 84 1016.7
20260506124503 68 156 3.0 5.0 0.00 0.03 0.00 84 1016.6
20260506124003 68 227 3.0 7.0 0.00 0.03 0.00 84 1016.5
20260506123503 68 237 4.0 8.0 0.00 0.03 0.00 84 1016.5
20260506123007 68 244 4.0 9.0 0.00 0.03 0.00 84 1016.5
20260506122503 68 254 5.0 9.0 0.00 0.03 0.00 84 1016.6
20260506122006 67 257 4.0 9.0 0.00 0.03 0.00 85 1016.5
20260506121510 67 259 6.0 9.0 0.00 0.03 0.00 86 1016.6
20260506121006 66 262 4.0 7.0 0.00 0.03 0.00 86 1016.6
20260506120506 66 242 5.0 7.0 0.00 0.04 0.00 86 1016.7
20260506120014 66 252 4.0 7.0 0.00 0.04 0.00 87 1016.7
20260506115506 66 240 4.0 7.0 0.00 0.04 0.00 87 1016.7
20260506115007 66 254 4.0 5.0 0.00 0.04 0.00 87 1016.8
20260506114524 66 261 3.0 7.0 0.00 0.04 0.00 87 1017.0
20260506114009 66 220 4.0 7.0 0.00 0.04 0.00 87 1017.1
20260506113502 66 229 4.0 8.0 0.00 0.04 0.00 88 1017.1
20260506113007 66 241 5.0 8.0 0.00 0.04 0.00 88 1017.1
20260506112506 66 239 5.0 7.0 0.00 0.04 0.00 88 1017.1
20260506112003 66 237 4.0 6.0 0.00 0.04 0.00 88 1017.2
20260506111508 66 236 3.0 5.0 0.00 0.04 0.00 88 1017.2
20260506111003 66 232 3.0 5.0 0.00 0.04 0.00 88 1017.3
20260506110503 66 242 3.0 5.0 0.00 0.04 0.00 87 1017.4
20260506110011 67 171 1.0 4.0 0.00 0.04 0.00 87 1017.5
20260506105507 67 190 1.0 4.0 0.00 0.04 0.00 87 1017.6
20260506105006 67 229 2.0 7.0 0.00 0.04 0.00 86 1017.6
20260506104514 67 190 1.0 7.0 0.00 0.04 0.00 86 1017.7
20260506104009 67 162 4.0 6.0 0.00 0.04 0.00 86 1017.7